Regional Weather Roundup
Issued by NWS Upton, NY

Current Version | Previous Version | Text Only | Print | Product List | Glossary On
Versions: 1 2 3 4 5 6 7 8 9 10 11 12 13 14 15 16 17 18 19 20 21 22 23 24 25 26 27
000
ASUS41 KOKX 201609
RWROKX

REGIONAL WEATHER ROUNDUP
NATIONAL WEATHER SERVICE NEW YORK NY
1200 PM EDT WED SEP 20 2017

NOTE: "FAIR" INDICATES FEW OR NO CLOUDS BELOW 12,000 FEET WITH NO
SIGNIFICANT WEATHER AND/OR OBSTRUCTIONS TO VISIBILITY.

NYZ071-072-176-178-NJZ106-104-201700-
NEW YORK CITY METRO AREA

CITY           SKY/WX    TMP DP  RH WIND       PRES   REMARKS
Central Park   CLOUDY    77  65  66 VRB6      29.91S
Bronx Bot Gard   N/A     75  63  64 NW2       29.90R
LaGuardia APRT CLOUDY    76  66  71 N16       29.86F
Kennedy INTL   CLOUDY    80  66  62 N22G30    29.86S
Breezy Point     N/A     75 N/A N/A N16G23      N/A
Newark/Liberty PTSUNNY   80  65  59 N17G26    29.88R
Teterboro      PTSUNNY   77  64  64 N14G22    29.88R
$$

NYZ177-179-078>081-201700-
LONG ISLAND NEW YORK

CITY           SKY/WX    TMP DP  RH WIND       PRES   REMARKS
Jones Beach      N/A     75 N/A N/A N25G36      N/A
Matinecock PT    N/A     73 N/A N/A N17         N/A
Farmingdale    CLOUDY    78  66  66 N17G29    29.84S
MacArthur/ISP  CLOUDY    76  67  73 N21       29.82R
Shirley        CLOUDY    76  68  76 N15G24    29.82R
Mt Sinai Harb    N/A    N/A N/A N/A N16         N/A
Westhampton    CLOUDY    74  65  73 N22G29    29.80R
East Hampton   CLOUDY    72  66  83 N14G23    29.77S
Montauk          N/A     71  68  90 N13G24    29.77S
$$

NYZ052-065-067-201700-
HUDSON VALLEY

CITY           SKY/WX    TMP DP  RH WIND       PRES   REMARKS
White Plains   PTSUNNY   77  65  66 N17       29.88S
Larchmont Harb   N/A     75 N/A N/A N18         N/A
Croton On Huds   N/A     77 N/A N/A N9G16       N/A
Newburgh       NOT AVBL
Montgomery     CLOUDY    76  65  68 NE15G23   29.93S
Poughkeepsie   CLOUDY    74  63  68 N10G18    29.92S
Albany         CLOUDY    76  63  64 N12       29.98F
$$

NJZ001-105-106-008-010-013-015-019>022-104-201700-
NEW JERSEY

CITY           SKY/WX    TMP DP  RH WIND       PRES   REMARKS
Newark/Liberty PTSUNNY   80  65  59 N17G26    29.88R
Teterboro      PTSUNNY   77  64  64 N14G22    29.88R
Caldwell       CLOUDY    76  66  71 NE10      29.90F
Somerville     NOT AVBL
Linden         FAIR      78  63  58 NE12G23   29.88S
Perth Amboy      N/A     77 N/A N/A N16G24      N/A
Sussex         CLOUDY    77  65  66 N7G16     29.93S
Andover          N/A     73  64  73 N5        29.94S
Trenton        CLOUDY    77  65  66 N10       29.90R
Millville      SUNNY     82  68  62 N12G21    29.89S
Atlantic City  PTSUNNY   78  68  71 N15       29.87R
Wrightstown    PTSUNNY   78  67  68 N16       29.86R
Toms River     CLOUDY    77  67  71 N12G21    29.87R
Belmar         CLOUDY    78  67  68 NW15G22   29.87S
$$

PAZ047>061-062-071-201700-
EASTERN PENNSYLVANIA

CITY           SKY/WX    TMP DP  RH WIND       PRES   REMARKS
Philadelphia   MOSUNNY   81  65  58 N15G22    29.90F
Allentown      SUNNY     82  65  56 N9        29.93F
Scranton       SUNNY     79  60  52 N8        29.99S
$$

CTZ002-004>006-009-010-012-RIZ004-006-007-MAZ004-011-015-201700-
SOUTHERN NEW ENGLAND
 IN CT

CITY           SKY/WX    TMP DP  RH WIND       PRES   REMARKS
Bradley INTL   CLOUDY    73  65  75 N15G28    29.89F
Hartford       CLOUDY    73  66  78 N15G21    29.87S
Danbury        CLOUDY    75  66  73 N9        29.91S
Wtrbury/Oxford CLOUDY    73  66  78 N20G26    29.89F
Norwalk Harbor   N/A     75 N/A N/A N20G28      N/A
Bridgeport     CLOUDY    78  66  66 N20G28    29.84S
Meriden        CLOUDY    74  65  73 N17       29.86S
New Haven      CLOUDY    77  66  68 N18G29    29.83S
Chester        CLOUDY    75  66  73 N14G25    29.84S
Groton         CLOUDY    74  67  78 N23G33    29.77F
Wilimantic     CLOUDY    74  67  78 N20G28    29.85S

 IN RI

CITY           SKY/WX    TMP DP  RH WIND       PRES   REMARKS
Providence     CLOUDY    70  68  93 NE24G35   29.82F FOG
Block Island   CLOUDY    69  66  90 N23G37    29.75S
Westerly       CLOUDY    73  68  84 N17G29    29.79S
 IN MA

CITY           SKY/WX    TMP DP  RH WIND       PRES   REMARKS
Boston         LGT RAIN  67  66  97 N22G30    29.88S FOG
Worcester      LGT RAIN  66  64  94 N17G24    29.92S VSB 1
Westfield      CLOUDY    75  65  70 N16       29.90F
Provincetown   LGT RAIN  64  63  96 NE18G26   29.82S VSB 3/4
Nantucket      CLOUDY    67  67 100 NE25G35   29.68F FOG
$$

ANZ330-335-338-340-345-350-353-355-201700-
COASTAL MARINE OBSERVATIONS


STATION/POSITION TIME  SKY/WX   TEMP    WIND        PRES    VSBY  WAVE
                                AIR SEA DIR/SP/G                  HT/PER
                 (UTC)          (F)     (DEG/KT/KT) (MB)    (MI)  (FT/S)
NY HARB ENTRANCE 1550            74 71  350/ 16/ 19 1009.5          7/10
20 S FIRE ISLAND 1550            71 67  350/ 21/ 25 1008.7         10/11
GREAT SOUTH BAY  1530            74 72  360/ 19/ 27   N/A
23 SSW MONTAUK P 1550            69 67              1006.6         10/12
15 E BARNEGAT LI 1430               68                N/A          10/11
HUDSON CANYON    1450            70 68  350/ 27/ 33 1004.4         15/10
KINGS POINT      1536            74 71   40/ 16/ 20 1012.0
EXECUTION ROCKS  1545            76      10/ 14/ 21   N/A
WESTERN LI SOUND NOT AVBL
CENTRAL LI SOUND NOT AVBL
EASTERN LI SOUND NOT AVBL
ROBBINS REEF     1536            75     360/ 22/ 25 1012.1
$$


>>>>>>>>>>>>>>>>>>>>>>>>>>>> KEY <<<<<<<<<<<<<<<<<<<<<<<<<<<
>                                                          <
>     SKY/WX - Sky Condition/Present Weather               <
>     TMP    - Temperature in Fahrenheit                   <
>     DP     - Dew Point in Fahrenheit                     <
>     RH     - Relative Humidity in Percent                <
>     WIND   - Direction (from) and Speed in MPH           <
>     PRES   - Mean Sea Level Pressure (inches of Hg)      <
>     WCI    - Wind Chill Index                            <
>     VSB    - VISIBILITY IN MILES                         <
>     HX     - HEAT INDEX                                  <
>     TC     - TEMPERATURE IN CELSIUS                      <
>     VRB    - VARIABLE WIND DIRECTION                     <
>                                                          <
>>>>>>>>>>>>>>>>>>>>>>>>>>>> KEY <<<<<<<<<<<<<<<<<<<<<<<<<<<




USA.gov is the U.S. government's official web portal to all federal, state and local government web resources and services.